Find Starlink 34827

NORAD ID: 65038 Int'l Des: 2025-161 Owner: SPXS Country: US Constellation: starlink operational
LEOCIRCULAR

实时位置

正在加载3D地球...

关于 Starlink 34827

正在加载描述...

即将过境

Passes for default location (London). Set your location on the main map for personalized predictions.

高度历史

Loading altitude history...

两行轨道根数

1 65038U 25161Z 26106.43850539 .00008227 00000-0 28947-3 0 9991
2 65038 53.1591 118.5537 0001034 84.1651 275.9468 15.30212573 40016
Epoch: Apr 16, 2026 • Age: 18 hours

当前状态

高度 480.7 km
速度 7.63 km/s
星下点 51.88°N, 45.02°W
发射日期 Jul 30, 2025
运行时间 0.7 years
类型 internet

技术详情

分类 Payload
质量 575.00 kg
干质量 530.00 kg
总质量 575.00 kg
长度 0.30 m
直径 4.10 m
跨度 29.00 m
形状 Box + pan
制造商 SPXS
平台类型 Starlink V2MO
阶段状态 In Orbit
所有者/国家 SPXS/US

Most Searched